PRAETORIAN SDA_616

Last updated on Sat Aug 15 2026 00:03:40 GMT+0000 (Coordinated Universal Time)

1 65579U 25203Q 26226.57215830 .00000066 00000+0 49472-4 0 9994 2 65579 81.3089 317.1143 0006327 52.7309 307.4423 13.83272330 46754
UTC large
Height (km)
Speed (km/s)
/
Latitude / Longitude
Inclination (degrees)
Orbital Period (minutes)
Azimuth
Elevation
Range (km)
Doppler Factor

Next 0 passes for location: London (51.5072 / 0.1276)

No passes found over London.
PRAETORIAN SDA_616